Time,TemperatureF,DewpointF,PressureIn,WindDirection,WindDirectionDegrees,WindSpeedMPH,WindSpeedGustMPH,Humidity,HourlyPrecipIn,Conditions,Clouds,dailyrainin,SoftwareType,DateUTC
2013-01-31 00:00:00,36.6,33.4,30.38,South,190,0.0,0.0,88,0.00,,,0.00,VWS V14.01,2013-01-31 08:00:00,
2013-01-31 00:02:00,36.6,33.4,30.38,South,190,0.0,0.0,88,0.00,,,0.00,VWS V14.01,2013-01-31 08:02:00,
2013-01-31 00:07:00,36.4,33.2,30.38,South,190,0.0,0.0,88,0.00,,,0.00,VWS V14.01,2013-01-31 08:07:00,
2013-01-31 00:12:00,36.4,33.2,30.38,South,190,0.0,0.0,88,0.00,,,0.00,VWS V14.01,2013-01-31 08:12:00,
2013-01-31 00:17:00,36.4,33.2,30.38,South,190,0.0,0.0,88,0.00,,,0.00,VWS V14.01,2013-01-31 08:17:00,
2013-01-31 00:22:00,36.5,33.3,30.38,South,190,0.0,0.0,88,0.00,,,0.00,VWS V14.01,2013-01-31 08:22:00,
2013-01-31 00:27:00,36.4,33.2,30.38,South,190,0.0,0.0,88,0.00,,,0.00,VWS V14.01,2013-01-31 08:27:00,
2013-01-31 00:30:00,36.4,33.2,30.38,South,190,0.0,0.0,88,0.00,,,0.00,VWS V14.01,2013-01-31 08:30:00,
2013-01-31 00:32:00,36.3,33.1,30.38,South,190,0.0,0.0,88,0.00,,,0.00,VWS V14.01,2013-01-31 08:32:00,
2013-01-31 00:37:00,36.2,33.0,30.38,South,190,0.0,0.0,88,0.00,,,0.00,VWS V14.01,2013-01-31 08:37:00,
2013-01-31 00:42:00,36.1,32.9,30.38,South,190,0.0,0.0,88,0.00,,,0.00,VWS V14.01,2013-01-31 08:42:00,
2013-01-31 00:47:00,36.0,32.8,30.38,South,190,0.0,0.0,88,0.00,,,0.00,VWS V14.01,2013-01-31 08:47:00,
2013-01-31 00:52:00,35.7,32.5,30.38,South,190,0.0,0.0,88,0.00,,,0.00,VWS V14.01,2013-01-31 08:52:00,
2013-01-31 00:57:00,35.6,32.4,30.38,South,190,0.0,0.0,88,0.00,,,0.00,VWS V14.01,2013-01-31 08:57:00,
2013-01-31 01:00:00,35.6,32.4,30.38,South,190,0.0,0.0,88,0.00,,,0.00,VWS V14.01,2013-01-31 09:00:00,
2013-01-31 01:02:00,35.6,32.4,30.37,South,190,0.0,0.0,88,0.00,,,0.00,VWS V14.01,2013-01-31 09:02:00,
2013-01-31 01:07:00,35.7,32.8,30.37,South,190,0.0,0.0,89,0.00,,,0.00,VWS V14.01,2013-01-31 09:07:00,
2013-01-31 01:12:00,35.5,32.3,30.37,South,190,0.0,0.0,88,0.00,,,0.00,VWS V14.01,2013-01-31 09:12:00,
2013-01-31 01:17:00,35.4,32.2,30.37,South,190,0.0,0.0,88,0.00,,,0.00,VWS V14.01,2013-01-31 09:17:00,
2013-01-31 01:22:00,35.2,32.0,30.37,South,190,0.0,0.0,88,0.00,,,0.00,VWS V14.01,2013-01-31 09:22:00,
2013-01-31 01:27:00,35.4,32.2,30.37,South,190,0.0,0.0,88,0.00,,,0.00,VWS V14.01,2013-01-31 09:27:00,
2013-01-31 01:30:00,35.4,32.5,30.37,South,190,0.0,0.0,89,0.00,,,0.00,VWS V14.01,2013-01-31 09:30:00,
2013-01-31 01:32:00,35.5,32.6,30.37,South,190,0.0,0.0,89,0.00,,,0.00,VWS V14.01,2013-01-31 09:32:00,
2013-01-31 01:37:00,35.3,32.1,30.37,South,190,0.0,0.0,88,0.00,,,0.00,VWS V14.01,2013-01-31 09:37:00,
2013-01-31 01:42:00,35.1,31.9,30.37,South,190,0.0,0.0,88,0.00,,,0.00,VWS V14.01,2013-01-31 09:42:00,
2013-01-31 01:47:00,35.1,32.2,30.37,South,190,0.0,0.0,89,0.00,,,0.00,VWS V14.01,2013-01-31 09:47:00,
2013-01-31 01:52:00,35.1,32.2,30.36,South,190,0.0,0.0,89,0.00,,,0.00,VWS V14.01,2013-01-31 09:52:00,
2013-01-31 01:57:00,35.2,32.3,30.37,South,190,0.0,0.0,89,0.00,,,0.00,VWS V14.01,2013-01-31 09:57:00,
2013-01-31 02:00:00,35.3,32.4,30.37,South,190,0.0,0.0,89,0.00,,,0.00,VWS V14.01,2013-01-31 10:00:00,
2013-01-31 02:02:00,35.2,32.3,30.37,South,190,0.0,0.0,89,0.00,,,0.00,VWS V14.01,2013-01-31 10:02:00,
2013-01-31 02:07:00,35.0,32.1,30.37,South,190,0.0,0.0,89,0.00,,,0.00,VWS V14.01,2013-01-31 10:07:00,
2013-01-31 02:12:00,34.6,31.4,30.36,South,190,0.0,0.0,88,0.00,,,0.00,VWS V14.01,2013-01-31 10:12:00,
2013-01-31 02:17:00,34.4,31.2,30.36,South,190,0.0,0.0,88,0.00,,,0.00,VWS V14.01,2013-01-31 10:17:00,
2013-01-31 02:22:00,34.6,31.7,30.36,South,190,0.0,0.0,89,0.00,,,0.00,VWS V14.01,2013-01-31 10:22:00,
2013-01-31 02:27:00,34.8,31.9,30.36,South,190,0.0,0.0,89,0.00,,,0.00,VWS V14.01,2013-01-31 10:27:00,
2013-01-31 02:30:00,34.9,32.0,30.36,South,190,0.0,0.0,89,0.00,,,0.00,VWS V14.01,2013-01-31 10:30:00,
2013-01-31 02:32:00,34.9,32.0,30.36,South,190,0.0,0.0,89,0.00,,,0.00,VWS V14.01,2013-01-31 10:32:00,
2013-01-31 02:37:00,34.8,31.9,30.36,South,190,0.0,0.0,89,0.00,,,0.00,VWS V14.01,2013-01-31 10:37:00,
2013-01-31 02:42:00,34.7,31.8,30.35,South,190,0.0,0.0,89,0.00,,,0.00,VWS V14.01,2013-01-31 10:42:00,
2013-01-31 02:47:00,34.7,31.8,30.35,South,190,0.0,0.0,89,0.00,,,0.00,VWS V14.01,2013-01-31 10:47:00,
2013-01-31 02:52:00,34.8,31.9,30.35,South,190,0.0,0.0,89,0.00,,,0.00,VWS V14.01,2013-01-31 10:52:00,
2013-01-31 02:57:00,34.8,31.9,30.35,South,190,0.0,0.0,89,0.00,,,0.00,VWS V14.01,2013-01-31 10:57:00,
2013-01-31 03:00:00,34.8,31.9,30.35,South,190,0.0,0.0,89,0.00,,,0.00,VWS V14.01,2013-01-31 11:00:00,
2013-01-31 03:02:00,34.8,31.9,30.35,South,190,0.0,0.0,89,0.00,,,0.00,VWS V14.01,2013-01-31 11:02:00,
2013-01-31 03:07:00,34.8,31.9,30.35,South,190,0.0,0.0,89,0.00,,,0.00,VWS V14.01,2013-01-31 11:07:00,
2013-01-31 03:12:00,34.7,31.8,30.35,South,190,0.0,0.0,89,0.00,,,0.00,VWS V14.01,2013-01-31 11:12:00,
2013-01-31 03:17:00,34.4,31.5,30.34,South,190,0.0,0.0,89,0.00,,,0.00,VWS V14.01,2013-01-31 11:17:00,
2013-01-31 03:22:00,34.4,31.5,30.35,South,190,0.0,0.0,89,0.00,,,0.00,VWS V14.01,2013-01-31 11:22:00,
2013-01-31 03:27:00,34.4,31.5,30.34,South,190,0.0,0.0,89,0.00,,,0.00,VWS V14.01,2013-01-31 11:27:00,
2013-01-31 03:30:00,34.3,31.4,30.34,South,190,0.0,0.0,89,0.00,,,0.00,VWS V14.01,2013-01-31 11:30:00,
2013-01-31 03:32:00,34.2,31.3,30.34,South,190,0.0,0.0,89,0.00,,,0.00,VWS V14.01,2013-01-31 11:32:00,
2013-01-31 03:37:00,34.4,31.5,30.34,South,190,0.0,0.0,89,0.00,,,0.00,VWS V14.01,2013-01-31 11:37:00,
2013-01-31 03:42:00,34.4,31.5,30.34,South,190,0.0,0.0,89,0.00,,,0.00,VWS V14.01,2013-01-31 11:42:00,
2013-01-31 03:47:00,34.4,31.5,30.34,South,190,0.0,0.0,89,0.00,,,0.00,VWS V14.01,2013-01-31 11:47:00,
2013-01-31 03:52:00,34.4,31.5,30.34,South,190,0.0,0.0,89,0.00,,,0.00,VWS V14.01,2013-01-31 11:52:00,
2013-01-31 03:57:00,34.3,31.4,30.34,South,190,0.0,0.0,89,0.00,,,0.00,VWS V14.01,2013-01-31 11:57:00,
2013-01-31 04:00:00,34.2,31.3,30.34,South,190,0.0,0.0,89,0.00,,,0.00,VWS V14.01,2013-01-31 12:00:00,
2013-01-31 04:02:00,34.1,31.2,30.34,South,190,0.0,0.0,89,0.00,,,0.00,VWS V14.01,2013-01-31 12:02:00,
2013-01-31 04:07:00,34.0,31.1,30.34,South,190,0.0,0.0,89,0.00,,,0.00,VWS V14.01,2013-01-31 12:07:00,
2013-01-31 04:12:00,34.0,31.1,30.34,South,190,0.0,0.0,89,0.00,,,0.00,VWS V14.01,2013-01-31 12:12:00,
2013-01-31 04:17:00,34.1,31.2,30.34,South,190,0.0,0.0,89,0.00,,,0.00,VWS V14.01,2013-01-31 12:17:00,
2013-01-31 04:22:00,34.1,31.2,30.34,South,190,0.0,0.0,89,0.00,,,0.00,VWS V14.01,2013-01-31 12:22:00,
2013-01-31 04:27:00,34.0,31.1,30.34,South,190,0.0,0.0,89,0.00,,,0.00,VWS V14.01,2013-01-31 12:27:00,
2013-01-31 04:30:00,34.0,31.1,30.34,South,190,0.0,0.0,89,0.00,,,0.00,VWS V14.01,2013-01-31 12:30:00,
2013-01-31 04:32:00,34.1,31.2,30.34,South,190,0.0,0.0,89,0.00,,,0.00,VWS V14.01,2013-01-31 12:32:00,
2013-01-31 04:37:00,33.9,31.0,30.34,South,190,0.0,0.0,89,0.00,,,0.00,VWS V14.01,2013-01-31 12:37:00,
2013-01-31 04:42:00,33.7,30.5,30.34,South,190,0.0,0.0,88,0.00,,,0.00,VWS V14.01,2013-01-31 12:42:00,
2013-01-31 04:47:00,33.6,30.4,30.34,South,190,0.0,0.0,88,0.00,,,0.00,VWS V14.01,2013-01-31 12:47:00,
2013-01-31 04:52:00,33.5,30.3,30.34,South,190,0.0,0.0,88,0.00,,,0.00,VWS V14.01,2013-01-31 12:52:00,
2013-01-31 04:57:00,33.4,30.2,30.35,South,190,0.0,0.0,88,0.00,,,0.00,VWS V14.01,2013-01-31 12:57:00,
2013-01-31 05:00:00,33.4,30.5,30.34,South,190,0.0,0.0,89,0.00,,,0.00,VWS V14.01,2013-01-31 13:00:00,
2013-01-31 05:02:00,33.4,30.5,30.34,South,190,0.0,0.0,89,0.00,,,0.00,VWS V14.01,2013-01-31 13:02:00,
2013-01-31 05:07:00,33.6,30.7,30.34,South,190,0.0,0.0,89,0.00,,,0.00,VWS V14.01,2013-01-31 13:07:00,
2013-01-31 05:12:00,33.5,30.6,30.34,South,190,0.0,0.0,89,0.00,,,0.00,VWS V14.01,2013-01-31 13:12:00,
2013-01-31 05:17:00,33.3,30.4,30.34,South,190,0.0,0.0,89,0.00,,,0.00,VWS V14.01,2013-01-31 13:17:00,
2013-01-31 05:22:00,33.2,30.3,30.34,South,190,0.0,0.0,89,0.00,,,0.00,VWS V14.01,2013-01-31 13:22:00,
2013-01-31 05:27:00,33.2,30.3,30.34,South,190,0.0,0.0,89,0.00,,,0.00,VWS V14.01,2013-01-31 13:27:00,
2013-01-31 05:30:00,33.1,30.2,30.34,South,190,0.0,0.0,89,0.00,,,0.00,VWS V14.01,2013-01-31 13:30:00,
2013-01-31 05:32:00,33.0,30.1,30.34,South,190,0.0,0.0,89,0.00,,,0.00,VWS V14.01,2013-01-31 13:32:00,
2013-01-31 05:37:00,33.0,30.1,30.34,South,190,0.0,0.0,89,0.00,,,0.00,VWS V14.01,2013-01-31 13:37:00,
2013-01-31 05:42:00,33.0,30.1,30.34,South,190,0.0,0.0,89,0.00,,,0.00,VWS V14.01,2013-01-31 13:42:00,
2013-01-31 05:47:00,33.1,30.2,30.34,South,190,0.0,0.0,89,0.00,,,0.00,VWS V14.01,2013-01-31 13:47:00,
2013-01-31 05:52:00,33.2,30.3,30.34,South,190,0.0,0.0,89,0.00,,,0.00,VWS V14.01,2013-01-31 13:52:00,
2013-01-31 05:57:00,33.0,30.1,30.35,South,190,0.0,0.0,89,0.00,,,0.00,VWS V14.01,2013-01-31 13:57:00,
2013-01-31 06:00:00,32.8,29.9,30.35,South,190,0.0,0.0,89,0.00,,,0.00,VWS V14.01,2013-01-31 14:00:00,
2013-01-31 06:02:00,32.8,29.9,30.35,South,190,0.0,0.0,89,0.00,,,0.00,VWS V14.01,2013-01-31 14:02:00,
2013-01-31 06:07:00,32.7,29.8,30.35,South,190,0.0,0.0,89,0.00,,,0.00,VWS V14.01,2013-01-31 14:07:00,
2013-01-31 06:12:00,32.7,29.8,30.35,South,190,0.0,0.0,89,0.00,,,0.00,VWS V14.01,2013-01-31 14:12:00,
2013-01-31 06:17:00,32.6,29.7,30.35,South,190,0.0,0.0,89,0.00,,,0.00,VWS V14.01,2013-01-31 14:17:00,
2013-01-31 06:22:00,32.6,29.7,30.35,South,190,0.0,0.0,89,0.00,,,0.00,VWS V14.01,2013-01-31 14:22:00,
2013-01-31 06:28:00,32.9,30.0,30.35,South,190,0.0,0.0,89,0.00,,,0.00,VWS V14.01,2013-01-31 14:28:00,
2013-01-31 06:30:00,33.0,30.1,30.35,South,190,0.0,0.0,89,0.00,,,0.00,VWS V14.01,2013-01-31 14:30:00,
2013-01-31 06:33:00,33.0,30.1,30.35,South,190,0.0,0.0,89,0.00,,,0.00,VWS V14.01,2013-01-31 14:33:00,
2013-01-31 06:38:00,32.9,30.0,30.35,South,190,0.0,0.0,89,0.00,,,0.00,VWS V14.01,2013-01-31 14:38:00,
2013-01-31 06:43:00,32.7,29.8,30.36,South,190,0.0,0.0,89,0.00,,,0.00,VWS V14.01,2013-01-31 14:43:00,
2013-01-31 06:48:00,32.6,29.7,30.36,South,190,0.0,0.0,89,0.00,,,0.00,VWS V14.01,2013-01-31 14:48:00,
2013-01-31 06:53:00,32.5,29.6,30.36,South,190,0.0,0.0,89,0.00,,,0.00,VWS V14.01,2013-01-31 14:53:00,
2013-01-31 06:58:00,32.6,29.7,30.36,South,190,0.0,0.0,89,0.00,,,0.00,VWS V14.01,2013-01-31 14:58:00,
2013-01-31 07:00:00,35.8,32.9,30.37,South,190,0.0,0.0,89,0.01,,,0.01,VWS V15.00,2013-01-31 15:00:00,
2013-01-31 07:03:00,32.8,29.9,30.36,South,190,0.0,0.0,89,0.00,,,0.00,VWS V14.01,2013-01-31 15:03:00,
2013-01-31 07:08:00,32.7,29.8,30.36,South,190,0.0,0.0,89,0.00,,,0.00,VWS V14.01,2013-01-31 15:08:00,
2013-01-31 07:13:00,32.6,29.7,30.36,South,190,0.0,0.0,89,0.00,,,0.00,VWS V14.01,2013-01-31 15:13:00,
2013-01-31 07:18:00,32.5,29.6,30.36,South,190,0.0,0.0,89,0.00,,,0.00,VWS V14.01,2013-01-31 15:18:00,
2013-01-31 07:23:00,32.5,29.6,30.36,South,190,0.0,0.0,89,0.00,,,0.00,VWS V14.01,2013-01-31 15:23:00,
2013-01-31 07:28:00,32.5,29.6,30.36,South,190,0.0,0.0,89,0.00,,,0.00,VWS V14.01,2013-01-31 15:28:00,
2013-01-31 07:30:00,43.0,37.3,30.37,South,190,0.0,1.0,80,0.01,,,0.01,VWS V15.00,2013-01-31 15:30:00,
2013-01-31 07:33:00,32.7,29.8,30.37,South,190,0.0,0.0,89,0.00,,,0.00,VWS V14.01,2013-01-31 15:33:00,
2013-01-31 07:38:00,32.8,29.9,30.37,South,190,0.0,0.0,89,0.00,,,0.00,VWS V14.01,2013-01-31 15:38:00,
2013-01-31 07:43:00,33.0,30.1,30.37,South,190,0.0,0.0,89,0.00,,,0.00,VWS V14.01,2013-01-31 15:43:00,
2013-01-31 07:48:00,33.7,30.8,30.37,South,190,0.0,0.0,89,0.01,,,0.01,VWS V14.01,2013-01-31 15:48:00,
2013-01-31 07:53:00,34.4,31.8,30.37,South,190,0.0,0.0,90,0.01,,,0.01,VWS V14.01,2013-01-31 15:53:00,
2013-01-31 07:58:00,35.3,32.4,30.37,South,190,0.0,0.0,89,0.01,,,0.01,VWS V14.01,2013-01-31 15:58:00,
2013-01-31 08:00:00,35.8,32.9,30.37,South,190,0.0,0.0,89,0.01,,,0.01,VWS V14.01,2013-01-31 16:00:00,
2013-01-31 08:03:00,36.3,33.4,30.37,South,190,0.0,0.0,89,0.01,,,0.01,VWS V14.01,2013-01-31 16:03:00,
2013-01-31 08:08:00,37.6,34.4,30.37,South,190,0.0,1.0,88,0.01,,,0.01,VWS V14.01,2013-01-31 16:08:00,
2013-01-31 08:13:00,38.7,34.9,30.37,South,190,0.0,1.0,86,0.01,,,0.01,VWS V14.01,2013-01-31 16:13:00,
2013-01-31 08:18:00,39.8,35.4,30.37,South,190,0.0,1.0,84,0.01,,,0.01,VWS V14.01,2013-01-31 16:18:00,
2013-01-31 08:23:00,41.2,36.1,30.37,South,190,0.0,1.0,82,0.01,,,0.01,VWS V14.01,2013-01-31 16:23:00,
2013-01-31 08:28:00,42.4,37.3,30.37,South,190,0.0,1.0,82,0.01,,,0.01,VWS V14.01,2013-01-31 16:28:00,
2013-01-31 08:30:00,43.0,37.3,30.37,South,190,0.0,1.0,80,0.01,,,0.01,VWS V14.01,2013-01-31 16:30:00,
2013-01-31 08:33:00,43.4,37.3,30.38,South,190,0.0,0.0,79,0.01,,,0.01,VWS V14.01,2013-01-31 16:33:00,
2013-01-31 08:38:00,43.6,37.5,30.37,South,190,0.0,0.0,79,0.01,,,0.01,VWS V14.01,2013-01-31 16:38:00,
2013-01-31 08:43:00,44.0,37.6,30.37,South,190,0.0,0.0,78,0.01,,,0.01,VWS V14.01,2013-01-31 16:43:00,
2013-01-31 08:48:00,44.8,38.4,30.37,South,190,0.0,0.0,78,0.01,,,0.01,VWS V14.01,2013-01-31 16:48:00,
2013-01-31 08:53:00,45.6,39.2,30.38,South,190,0.0,0.0,78,0.01,,,0.01,VWS V14.01,2013-01-31 16:53:00,
2013-01-31 08:58:00,46.9,39.7,30.37,South,190,0.0,0.0,76,0.01,,,0.01,VWS V14.01,2013-01-31 16:58:00,
2013-01-31 09:00:00,47.6,39.7,30.37,South,190,0.0,0.0,74,0.01,,,0.01,VWS V14.01,2013-01-31 17:00:00,
2013-01-31 09:03:00,48.6,40.0,30.37,South,190,0.0,0.0,72,0.00,,,0.01,VWS V14.01,2013-01-31 17:03:00,
2013-01-31 09:08:00,49.8,39.3,30.37,South,190,0.0,1.0,67,0.00,,,0.01,VWS V14.01,2013-01-31 17:08:00,
2013-01-31 09:13:00,49.9,39.0,30.38,South,190,0.0,1.0,66,0.00,,,0.01,VWS V14.01,2013-01-31 17:13:00,
2013-01-31 09:18:00,50.4,39.1,30.38,South,190,0.0,1.0,65,0.00,,,0.01,VWS V14.01,2013-01-31 17:18:00,
2013-01-31 09:23:00,50.7,39.0,30.37,South,190,0.0,1.0,64,0.00,,,0.01,VWS V14.01,2013-01-31 17:23:00,
2013-01-31 09:28:00,51.3,37.9,30.38,South,190,0.0,1.0,60,0.00,,,0.01,VWS V14.01,2013-01-31 17:28:00,
2013-01-31 09:30:00,51.5,36.8,30.38,South,190,0.0,1.0,57,0.00,,,0.01,VWS V14.01,2013-01-31 17:30:00,
2013-01-31 09:33:00,52.0,37.2,30.37,South,190,0.0,0.0,57,0.00,,,0.01,VWS V14.01,2013-01-31 17:33:00,
2013-01-31 09:38:00,52.5,37.7,30.38,South,190,0.0,1.0,57,0.00,,,0.01,VWS V14.01,2013-01-31 17:38:00,
2013-01-31 09:43:00,53.2,37.9,30.37,South,190,0.0,1.0,56,0.00,,,0.01,VWS V14.01,2013-01-31 17:43:00,
2013-01-31 09:48:00,53.9,38.6,30.37,South,190,0.0,1.0,56,0.00,,,0.01,VWS V14.01,2013-01-31 17:48:00,
2013-01-31 09:53:00,54.6,35.8,30.37,South,190,0.0,3.0,49,0.00,,,0.01,VWS V14.01,2013-01-31 17:53:00,
2013-01-31 09:58:00,55.4,39.5,30.37,South,190,0.0,3.0,55,0.00,,,0.01,VWS V14.01,2013-01-31 17:58:00,
2013-01-31 10:00:00,55.9,38.5,30.37,South,190,0.0,3.0,52,0.00,,,0.01,VWS V14.01,2013-01-31 18:00:00,
2013-01-31 10:03:00,56.3,37.4,30.37,South,190,0.0,0.0,49,0.00,,,0.01,VWS V14.01,2013-01-31 18:03:00,
2013-01-31 10:08:00,56.9,35.2,30.37,South,190,0.0,1.0,44,0.00,,,0.01,VWS V14.01,2013-01-31 18:08:00,
2013-01-31 10:13:00,57.1,34.8,30.37,South,186,0.0,2.0,43,0.00,,,0.01,VWS V14.01,2013-01-31 18:13:00,
2013-01-31 10:18:00,56.5,34.9,30.37,WSW,254,0.0,3.0,44,0.00,,,0.01,VWS V14.01,2013-01-31 18:18:00,
2013-01-31 10:23:00,56.8,34.6,30.37,WSW,253,0.0,3.0,43,0.00,,,0.01,VWS V14.01,2013-01-31 18:23:00,
2013-01-31 10:28:00,57.4,35.1,30.37,WSW,254,1.0,3.0,43,0.00,,,0.01,VWS V14.01,2013-01-31 18:28:00,
2013-01-31 10:30:00,57.6,35.3,30.36,WSW,254,1.0,3.0,43,0.00,,,0.01,VWS V14.01,2013-01-31 18:30:00,
2013-01-31 10:33:00,58.0,35.1,30.36,NNW,336,0.0,2.0,42,0.00,,,0.01,VWS V14.01,2013-01-31 18:33:00,
2013-01-31 10:38:00,58.6,35.6,30.36,WNW,296,0.0,2.0,42,0.00,,,0.01,VWS V14.01,2013-01-31 18:38:00,
2013-01-31 10:43:00,58.0,34.5,30.36,WNW,291,0.0,3.0,41,0.00,,,0.01,VWS V14.01,2013-01-31 18:43:00,
2013-01-31 10:48:00,57.8,35.5,30.36,WNW,291,0.0,3.0,43,0.00,,,0.01,VWS V14.01,2013-01-31 18:48:00,
2013-01-31 10:53:00,58.2,35.8,30.36,SSE,155,2.0,4.0,43,0.00,,,0.01,VWS V14.01,2013-01-31 18:53:00,
2013-01-31 10:58:00,59.0,37.1,30.36,SSE,153,0.0,4.0,44,0.00,,,0.01,VWS V14.01,2013-01-31 18:58:00,
2013-01-31 11:00:00,59.3,36.8,30.36,SSE,153,0.0,4.0,43,0.00,,,0.01,VWS V14.01,2013-01-31 19:00:00,
2013-01-31 11:03:00,60.1,37.5,30.36,WSW,240,3.0,3.0,43,0.00,,,0.01,VWS V14.01,2013-01-31 19:03:00,
2013-01-31 11:08:00,59.0,35.3,30.35,SW,221,0.0,4.0,41,0.00,,,0.01,VWS V14.01,2013-01-31 19:08:00,
2013-01-31 11:13:00,58.7,36.3,30.35,SW,221,5.0,5.0,43,0.00,,,0.01,VWS V14.01,2013-01-31 19:13:00,
2013-01-31 11:19:00,57.9,36.7,30.35,SSE,167,4.0,10.0,45,0.00,,,0.01,VWS V14.01,2013-01-31 19:19:00,
2013-01-31 11:24:00,57.7,36.5,30.35,SE,142,4.0,10.0,45,0.00,,,0.01,VWS V14.01,2013-01-31 19:24:00,
2013-01-31 11:29:00,57.6,37.0,30.35,SSW,205,3.0,10.0,46,0.00,,,0.01,VWS V14.01,2013-01-31 19:29:00,
2013-01-31 11:30:00,57.7,37.1,30.35,SE,146,2.0,10.0,46,0.00,,,0.01,VWS V14.01,2013-01-31 19:30:00,
2013-01-31 11:34:00,58.1,37.5,30.35,SSW,199,1.0,6.0,46,0.00,,,0.01,VWS V14.01,2013-01-31 19:34:00,
2013-01-31 11:39:00,58.2,37.0,30.35,South,190,1.0,6.0,45,0.00,,,0.01,VWS V14.01,2013-01-31 19:39:00,
2013-01-31 11:44:00,58.2,37.5,30.35,SW,215,2.0,7.0,46,0.00,,,0.01,VWS V14.01,2013-01-31 19:44:00,
2013-01-31 11:49:00,58.5,36.1,30.34,SSW,192,1.0,7.0,43,0.00,,,0.01,VWS V14.01,2013-01-31 19:49:00,
2013-01-31 11:54:00,59.0,36.6,30.34,WSW,242,0.0,7.0,43,0.00,,,0.01,VWS V14.01,2013-01-31 19:54:00,
2013-01-31 11:59:00,59.8,37.9,30.34,SSW,212,1.0,7.0,44,0.00,,,0.01,VWS V14.01,2013-01-31 19:59:00,
2013-01-31 12:00:00,59.6,37.7,30.34,SE,139,6.0,7.0,44,0.00,,,0.01,VWS V14.01,2013-01-31 20:00:00,
2013-01-31 12:04:00,58.9,38.7,30.33,SE,144,0.0,6.0,47,0.00,,,0.01,VWS V14.01,2013-01-31 20:04:00,
2013-01-31 12:09:00,59.1,38.9,30.33,South,175,0.0,6.0,47,0.00,,,0.01,VWS V14.01,2013-01-31 20:09:00,
2013-01-31 12:14:00,59.0,38.3,30.33,ESE,117,2.0,6.0,46,0.00,,,0.01,VWS V14.01,2013-01-31 20:14:00,
2013-01-31 12:19:00,59.0,37.1,30.33,SSW,209,2.0,6.0,44,0.00,,,0.01,VWS V14.01,2013-01-31 20:19:00,
2013-01-31 12:24:00,59.0,38.8,30.33,SE,132,3.0,6.0,47,0.00,,,0.01,VWS V14.01,2013-01-31 20:24:00,
2013-01-31 12:29:00,59.0,39.4,30.33,South,177,0.0,9.0,48,0.00,,,0.01,VWS V14.01,2013-01-31 20:29:00,
2013-01-31 12:30:00,59.1,39.5,30.33,West,261,2.0,9.0,48,0.00,,,0.01,VWS V14.01,2013-01-31 20:30:00,
2013-01-31 12:34:00,59.2,39.0,30.33,WNW,303,6.0,6.0,47,0.00,,,0.01,VWS V14.01,2013-01-31 20:34:00,
2013-01-31 12:39:00,59.4,38.6,30.33,ESE,108,3.0,8.0,46,0.00,,,0.01,VWS V14.01,2013-01-31 20:39:00,
2013-01-31 12:44:00,59.6,39.4,30.33,SSW,211,2.0,8.0,47,0.00,,,0.01,VWS V14.01,2013-01-31 20:44:00,
2013-01-31 12:49:00,59.7,39.5,30.32,West,259,1.0,8.0,47,0.00,,,0.01,VWS V14.01,2013-01-31 20:49:00,
2013-01-31 12:54:00,60.1,39.8,30.32,SSE,152,3.0,8.0,47,0.00,,,0.01,VWS V14.01,2013-01-31 20:54:00,
2013-01-31 12:59:00,60.2,38.8,30.32,SSE,152,1.0,8.0,45,0.00,,,0.01,VWS V14.01,2013-01-31 20:59:00,
2013-01-31 13:00:00,59.8,39.0,30.32,SSE,152,0.0,8.0,46,0.00,,,0.01,VWS V14.01,2013-01-31 21:00:00,
2013-01-31 13:04:00,59.9,39.1,30.32,SSW,207,3.0,6.0,46,0.00,,,0.01,VWS V14.01,2013-01-31 21:04:00,
2013-01-31 13:09:00,60.0,39.7,30.32,West,273,0.0,6.0,47,0.00,,,0.01,VWS V14.01,2013-01-31 21:09:00,
2013-01-31 13:14:00,60.1,39.3,30.32,WSW,248,2.0,8.0,46,0.00,,,0.01,VWS V14.01,2013-01-31 21:14:00,
2013-01-31 13:19:00,60.2,40.5,30.31,SSE,148,1.0,8.0,48,0.00,,,0.01,VWS V14.01,2013-01-31 21:19:00,
2013-01-31 13:24:00,60.0,39.7,30.31,SW,232,2.0,8.0,47,0.00,,,0.01,VWS V14.01,2013-01-31 21:24:00,
2013-01-31 13:29:00,59.5,40.3,30.31,SSW,199,0.0,8.0,49,0.00,,,0.01,VWS V14.01,2013-01-31 21:29:00,
2013-01-31 13:30:00,59.4,40.2,30.31,WSW,257,0.0,8.0,49,0.00,,,0.01,VWS V14.01,2013-01-31 21:30:00,
2013-01-31 13:34:00,59.3,40.7,30.31,West,264,2.0,4.0,50,0.00,,,0.01,VWS V14.01,2013-01-31 21:34:00,
2013-01-31 13:39:00,59.3,41.7,30.31,West,264,0.0,5.0,52,0.00,,,0.01,VWS V14.01,2013-01-31 21:39:00,
2013-01-31 13:44:00,59.0,41.4,30.31,SSW,213,0.0,5.0,52,0.00,,,0.01,VWS V14.01,2013-01-31 21:44:00,
2013-01-31 13:49:00,59.0,40.9,30.31,SW,220,0.0,6.0,51,0.00,,,0.01,VWS V14.01,2013-01-31 21:49:00,
2013-01-31 13:54:00,59.0,41.4,30.31,WNW,293,1.0,7.0,52,0.00,,,0.01,VWS V14.01,2013-01-31 21:54:00,
2013-01-31 13:59:00,59.0,41.4,30.31,WSW,249,3.0,7.0,52,0.00,,,0.01,VWS V14.01,2013-01-31 21:59:00,
2013-01-31 14:00:00,59.0,41.4,30.31,WSW,249,0.0,7.0,52,0.00,,,0.01,VWS V14.01,2013-01-31 22:00:00,
2013-01-31 14:04:00,58.9,41.8,30.31,SE,142,3.0,5.0,53,0.00,,,0.01,VWS V14.01,2013-01-31 22:04:00,
2013-01-31 14:09:00,58.6,42.0,30.31,West,265,0.0,5.0,54,0.00,,,0.01,VWS V14.01,2013-01-31 22:09:00,
2013-01-31 14:14:00,59.0,42.4,30.31,West,266,2.0,5.0,54,0.00,,,0.01,VWS V14.01,2013-01-31 22:14:00,
2013-01-31 14:19:00,59.1,42.0,30.31,WSW,249,0.0,5.0,53,0.00,,,0.01,VWS V14.01,2013-01-31 22:19:00,
2013-01-31 14:24:00,59.8,42.7,30.30,West,274,0.0,5.0,53,0.00,,,0.01,VWS V14.01,2013-01-31 22:24:00,
2013-01-31 14:29:00,60.0,42.3,30.30,SE,144,3.0,5.0,52,0.00,,,0.01,VWS V14.01,2013-01-31 22:29:00,
2013-01-31 14:30:00,59.9,42.7,30.30,SSW,202,0.0,5.0,53,0.00,,,0.01,VWS V14.01,2013-01-31 22:30:00,
2013-01-31 14:34:00,59.9,42.2,30.30,SSW,207,0.0,4.0,52,0.00,,,0.01,VWS V14.01,2013-01-31 22:34:00,
2013-01-31 14:39:00,60.5,42.3,30.30,SSW,206,0.0,4.0,51,0.00,,,0.01,VWS V14.01,2013-01-31 22:39:00,
2013-01-31 14:44:00,60.5,42.8,30.30,WSW,256,0.0,4.0,52,0.00,,,0.01,VWS V14.01,2013-01-31 22:44:00,
2013-01-31 14:49:00,60.5,42.8,30.30,South,173,2.0,5.0,52,0.00,,,0.01,VWS V14.01,2013-01-31 22:49:00,
2013-01-31 14:54:00,59.7,42.6,30.30,SSW,203,1.0,5.0,53,0.00,,,0.01,VWS V14.01,2013-01-31 22:54:00,
2013-01-31 14:59:00,59.4,42.8,30.30,SW,219,1.0,5.0,54,0.00,,,0.01,VWS V14.01,2013-01-31 22:59:00,
2013-01-31 15:00:00,59.5,42.4,30.29,SW,217,1.0,5.0,53,0.00,,,0.01,VWS V14.01,2013-01-31 23:00:00,
2013-01-31 15:04:00,59.6,42.5,30.29,South,186,0.0,3.0,53,0.00,,,0.01,VWS V14.01,2013-01-31 23:04:00,
2013-01-31 15:09:00,59.8,42.7,30.29,WSW,252,3.0,3.0,53,0.00,,,0.01,VWS V14.01,2013-01-31 23:09:00,
2013-01-31 15:21:00,59.9,42.7,30.29,SSW,202,1.0,1.0,53,0.00,,,0.01,VWS V14.01,2013-01-31 23:21:00,
2013-01-31 15:26:00,60.4,42.7,30.30,SW,220,1.0,2.0,52,0.00,,,0.01,VWS V14.01,2013-01-31 23:26:00,
2013-01-31 15:30:00,60.9,43.2,30.30,WSW,240,0.0,3.0,52,0.00,,,0.01,VWS V14.01,2013-01-31 23:30:00,
2013-01-31 15:31:00,60.8,43.1,30.30,WSW,241,0.0,3.0,52,0.00,,,0.01,VWS V14.01,2013-01-31 23:31:00,
2013-01-31 15:36:00,60.2,43.0,30.30,SW,235,0.0,4.0,53,0.00,,,0.01,VWS V14.01,2013-01-31 23:36:00,
2013-01-31 15:41:00,59.5,42.9,30.30,SW,230,0.0,4.0,54,0.00,,,0.01,VWS V14.01,2013-01-31 23:41:00,
2013-01-31 15:46:00,59.0,42.4,30.30,SSW,205,0.0,4.0,54,0.00,,,0.01,VWS V14.01,2013-01-31 23:46:00,
2013-01-31 15:51:00,59.2,42.6,30.30,WNW,301,0.0,4.0,54,0.00,,,0.01,VWS V14.01,2013-01-31 23:51:00,
2013-01-31 15:56:00,59.0,42.9,30.30,WNW,283,2.0,4.0,55,0.00,,,0.01,VWS V14.01,2013-01-31 23:56:00,
2013-01-31 16:00:00,59.0,42.9,30.30,WNW,284,0.0,4.0,55,0.00,,,0.01,VWS V14.01,2013-02-01 00:00:00,
2013-01-31 16:02:00,59.0,42.9,30.30,WNW,284,0.0,4.0,55,0.00,,,0.01,VWS V14.01,2013-02-01 00:02:00,
2013-01-31 16:07:00,58.8,42.2,30.30,SW,228,3.0,3.0,54,0.00,,,0.01,VWS V14.01,2013-02-01 00:07:00,
2013-01-31 16:12:00,58.2,41.7,30.30,SW,228,0.0,3.0,54,0.00,,,0.01,VWS V14.01,2013-02-01 00:12:00,
2013-01-31 16:17:00,58.3,41.8,30.30,SW,227,0.0,3.0,54,0.00,,,0.01,VWS V14.01,2013-02-01 00:17:00,
2013-01-31 16:22:00,58.7,39.1,30.30,SW,228,0.0,3.0,48,0.00,,,0.01,VWS V14.01,2013-02-01 00:22:00,
2013-01-31 16:27:00,58.5,38.9,30.30,SW,228,0.0,3.0,48,0.00,,,0.01,VWS V14.01,2013-02-01 00:27:00,
2013-01-31 16:30:00,58.3,39.8,30.30,SW,228,0.0,3.0,50,0.00,,,0.01,VWS V14.01,2013-02-01 00:30:00,
2013-01-31 16:32:00,58.0,39.5,30.30,SW,228,0.0,0.0,50,0.00,,,0.01,VWS V14.01,2013-02-01 00:32:00,
2013-01-31 16:37:00,57.6,39.1,30.30,SW,228,0.0,0.0,50,0.00,,,0.01,VWS V14.01,2013-02-01 00:37:00,
2013-01-31 16:42:00,57.1,39.2,30.30,SW,228,0.0,0.0,51,0.00,,,0.01,VWS V14.01,2013-02-01 00:42:00,
2013-01-31 16:47:00,56.8,39.9,30.30,SW,228,0.0,0.0,53,0.00,,,0.01,VWS V14.01,2013-02-01 00:47:00,
2013-01-31 16:52:00,56.2,39.8,30.30,SW,227,0.0,0.0,54,0.00,,,0.01,VWS V14.01,2013-02-01 00:52:00,
2013-01-31 16:57:00,55.5,39.6,30.30,SW,227,0.0,0.0,55,0.00,,,0.01,VWS V14.01,2013-02-01 00:57:00,
2013-01-31 17:00:00,55.1,39.7,30.30,SW,228,0.0,0.0,56,0.00,,,0.01,VWS V14.01,2013-02-01 01:00:00,
2013-01-31 17:02:00,54.9,40.0,30.30,SW,228,0.0,0.0,57,0.00,,,0.01,VWS V14.01,2013-02-01 01:02:00,
2013-01-31 17:07:00,54.3,39.8,30.30,SW,227,0.0,0.0,58,0.00,,,0.01,VWS V14.01,2013-02-01 01:07:00,
2013-01-31 17:12:00,53.8,39.8,30.30,SW,228,0.0,0.0,59,0.00,,,0.01,VWS V14.01,2013-02-01 01:12:00,
2013-01-31 17:17:00,53.3,40.2,30.29,SW,228,0.0,0.0,61,0.00,,,0.01,VWS V14.01,2013-02-01 01:17:00,
2013-01-31 17:22:00,52.8,40.2,30.30,SW,228,0.0,0.0,62,0.00,,,0.01,VWS V14.01,2013-02-01 01:22:00,
2013-01-31 17:27:00,52.3,40.1,30.29,SW,227,0.0,0.0,63,0.00,,,0.01,VWS V14.01,2013-02-01 01:27:00,
2013-01-31 17:30:00,52.0,40.2,30.29,SW,228,0.0,0.0,64,0.00,,,0.01,VWS V14.01,2013-02-01 01:30:00,
2013-01-31 17:32:00,51.8,40.0,30.29,SW,228,0.0,0.0,64,0.00,,,0.01,VWS V14.01,2013-02-01 01:32:00,
2013-01-31 17:37:00,51.1,40.2,30.30,SW,227,0.0,0.0,66,0.00,,,0.01,VWS V14.01,2013-02-01 01:37:00,
2013-01-31 17:42:00,50.5,40.0,30.30,SW,228,0.0,0.0,67,0.00,,,0.01,VWS V14.01,2013-02-01 01:42:00,
2013-01-31 17:47:00,49.9,39.8,30.30,SW,228,0.0,0.0,68,0.00,,,0.01,VWS V14.01,2013-02-01 01:47:00,
2013-01-31 17:52:00,49.5,40.1,30.30,SW,227,0.0,0.0,70,0.00,,,0.01,VWS V14.01,2013-02-01 01:52:00,
2013-01-31 17:57:00,49.1,39.8,30.30,SW,228,0.0,0.0,70,0.00,,,0.01,VWS V14.01,2013-02-01 01:57:00,
2013-01-31 18:00:00,48.8,39.8,30.30,SW,227,0.0,0.0,71,0.00,,,0.01,VWS V14.01,2013-02-01 02:00:00,
2013-01-31 18:02:00,48.6,39.6,30.30,SW,228,0.0,0.0,71,0.00,,,0.01,VWS V14.01,2013-02-01 02:02:00,
2013-01-31 18:07:00,48.1,39.5,30.30,SW,227,0.0,0.0,72,0.00,,,0.01,VWS V14.01,2013-02-01 02:07:00,
2013-01-31 18:12:00,47.8,39.2,30.30,SW,227,0.0,0.0,72,0.00,,,0.01,VWS V14.01,2013-02-01 02:12:00,
2013-01-31 18:17:00,47.4,39.2,30.30,SW,227,0.0,0.0,73,0.00,,,0.01,VWS V14.01,2013-02-01 02:17:00,
2013-01-31 18:22:00,47.0,38.8,30.30,SW,228,0.0,0.0,73,0.00,,,0.01,VWS V14.01,2013-02-01 02:22:00,
2013-01-31 18:27:00,46.7,39.2,30.30,SW,228,0.0,0.0,75,0.00,,,0.01,VWS V14.01,2013-02-01 02:27:00,
2013-01-31 18:30:00,46.5,39.0,30.30,SW,228,0.0,0.0,75,0.00,,,0.01,VWS V14.01,2013-02-01 02:30:00,
2013-01-31 18:33:00,46.4,38.9,30.30,SW,227,0.0,0.0,75,0.00,,,0.01,VWS V14.01,2013-02-01 02:33:00,
2013-01-31 18:38:00,46.1,39.0,30.30,SW,227,0.0,0.0,76,0.00,,,0.01,VWS V14.01,2013-02-01 02:38:00,
2013-01-31 18:43:00,45.9,39.1,30.30,SW,228,0.0,0.0,77,0.00,,,0.01,VWS V14.01,2013-02-01 02:43:00,
2013-01-31 18:48:00,45.6,38.8,30.30,SW,228,0.0,0.0,77,0.00,,,0.01,VWS V14.01,2013-02-01 02:48:00,
2013-01-31 18:53:00,45.1,38.3,30.30,SW,227,0.0,0.0,77,0.00,,,0.01,VWS V14.01,2013-02-01 02:53:00,
2013-01-31 18:58:00,44.7,37.9,30.30,SW,227,0.0,0.0,77,0.00,,,0.01,VWS V14.01,2013-02-01 02:58:00,
2013-01-31 19:00:00,44.5,38.1,30.30,SW,227,0.0,0.0,78,0.00,,,0.01,VWS V14.01,2013-02-01 03:00:00,
2013-01-31 19:03:00,44.4,38.0,30.30,SW,228,0.0,0.0,78,0.00,,,0.01,VWS V14.01,2013-02-01 03:03:00,
2013-01-31 19:08:00,44.2,38.1,30.30,SW,228,0.0,0.0,79,0.00,,,0.01,VWS V14.01,2013-02-01 03:08:00,
2013-01-31 19:13:00,44.1,38.0,30.30,SW,228,0.0,0.0,79,0.00,,,0.01,VWS V14.01,2013-02-01 03:13:00,
2013-01-31 19:18:00,43.9,37.8,30.30,SW,228,0.0,0.0,79,0.00,,,0.01,VWS V14.01,2013-02-01 03:18:00,
2013-01-31 19:23:00,43.6,37.5,30.30,SW,228,0.0,0.0,79,0.00,,,0.01,VWS V14.01,2013-02-01 03:23:00,
2013-01-31 19:28:00,43.4,37.7,30.30,SW,227,0.0,0.0,80,0.00,,,0.01,VWS V14.01,2013-02-01 03:28:00,
2013-01-31 19:30:00,43.3,37.6,30.30,SW,228,0.0,0.0,80,0.00,,,0.01,VWS V14.01,2013-02-01 03:30:00,
2013-01-31 19:33:00,43.2,37.5,30.30,SW,227,0.0,0.0,80,0.00,,,0.01,VWS V14.01,2013-02-01 03:33:00,
2013-01-31 19:38:00,43.0,37.6,30.30,SW,228,0.0,0.0,81,0.00,,,0.01,VWS V14.01,2013-02-01 03:38:00,
2013-01-31 19:43:00,42.9,37.5,30.30,SW,228,0.0,0.0,81,0.00,,,0.01,VWS V14.01,2013-02-01 03:43:00,
2013-01-31 19:48:00,42.7,37.3,30.30,SW,228,0.0,0.0,81,0.00,,,0.01,VWS V14.01,2013-02-01 03:48:00,
2013-01-31 19:53:00,42.6,37.2,30.30,SW,227,0.0,0.0,81,0.00,,,0.01,VWS V14.01,2013-02-01 03:53:00,
2013-01-31 19:58:00,42.4,37.3,30.30,SW,228,0.0,0.0,82,0.00,,,0.01,VWS V14.01,2013-02-01 03:58:00,
2013-01-31 20:00:00,42.3,37.2,30.30,SW,228,0.0,0.0,82,0.00,,,0.01,VWS V14.01,2013-02-01 04:00:00,
2013-01-31 20:03:00,42.2,37.1,30.30,SW,228,0.0,0.0,82,0.00,,,0.01,VWS V14.01,2013-02-01 04:03:00,
2013-01-31 20:08:00,42.1,37.3,30.30,SW,227,0.0,0.0,83,0.00,,,0.01,VWS V14.01,2013-02-01 04:08:00,
2013-01-31 20:13:00,42.0,37.2,30.30,SW,228,0.0,0.0,83,0.00,,,0.01,VWS V14.01,2013-02-01 04:13:00,
2013-01-31 20:18:00,41.9,37.1,30.29,SW,228,0.0,0.0,83,0.00,,,0.01,VWS V14.01,2013-02-01 04:18:00,
2013-01-31 20:23:00,41.8,37.0,30.29,SW,228,0.0,0.0,83,0.00,,,0.01,VWS V14.01,2013-02-01 04:23:00,
2013-01-31 20:28:00,41.6,37.1,30.30,SW,228,0.0,0.0,84,0.00,,,0.01,VWS V14.01,2013-02-01 04:28:00,
2013-01-31 20:30:00,41.5,37.0,30.30,SW,228,0.0,0.0,84,0.00,,,0.01,VWS V14.01,2013-02-01 04:30:00,
2013-01-31 20:33:00,41.4,36.6,30.30,SW,228,0.0,0.0,83,0.00,,,0.01,VWS V14.01,2013-02-01 04:33:00,
2013-01-31 20:38:00,41.1,36.6,30.30,SW,228,0.0,0.0,84,0.00,,,0.01,VWS V14.01,2013-02-01 04:38:00,
2013-01-31 20:43:00,40.9,36.5,30.30,SW,228,0.0,0.0,84,0.00,,,0.01,VWS V14.01,2013-02-01 04:43:00,
2013-01-31 20:48:00,40.7,36.2,30.30,SW,228,0.0,0.0,84,0.00,,,0.01,VWS V14.01,2013-02-01 04:48:00,
2013-01-31 20:53:00,40.6,36.2,30.30,SW,227,0.0,0.0,84,0.00,,,0.01,VWS V14.01,2013-02-01 04:53:00,
2013-01-31 20:58:00,40.5,36.3,30.30,SW,227,0.0,0.0,85,0.00,,,0.01,VWS V14.01,2013-02-01 04:58:00,
2013-01-31 21:00:00,40.5,36.3,30.29,SW,227,0.0,0.0,85,0.00,,,0.01,VWS V14.01,2013-02-01 05:00:00,
2013-01-31 21:01:00,40.5,36.3,30.30,SW,227,0.0,0.0,85,0.00,,,0.01,VWS V14.01,2013-02-01 05:01:00,
2013-01-31 21:02:00,40.5,36.7,30.30,SW,228,0.0,0.0,86,0.00,,,0.01,VWS V14.01,2013-02-01 05:02:00,
2013-01-31 21:07:00,40.4,36.3,30.30,SW,228,0.0,0.0,85,0.00,,,0.01,VWS V14.01,2013-02-01 05:07:00,
2013-01-31 21:12:00,40.2,36.1,30.30,SW,227,0.0,0.0,85,0.00,,,0.01,VWS V14.01,2013-02-01 05:12:00,
2013-01-31 21:17:00,40.0,35.9,30.30,SW,228,0.0,0.0,85,0.00,,,0.01,VWS V14.01,2013-02-01 05:17:00,
2013-01-31 21:22:00,39.9,36.1,30.30,SW,228,0.0,0.0,86,0.00,,,0.01,VWS V14.01,2013-02-01 05:22:00,
2013-01-31 21:27:00,39.8,36.0,30.30,SW,228,0.0,0.0,86,0.00,,,0.01,VWS V14.01,2013-02-01 05:27:00,
2013-01-31 21:30:00,39.6,35.8,30.30,SW,228,0.0,0.0,86,0.00,,,0.01,VWS V14.01,2013-02-01 05:30:00,
2013-01-31 21:32:00,39.6,35.8,30.30,SW,228,0.0,0.0,86,0.00,,,0.01,VWS V14.01,2013-02-01 05:32:00,
2013-01-31 21:37:00,39.5,35.7,30.30,SW,228,0.0,0.0,86,0.00,,,0.01,VWS V14.01,2013-02-01 05:37:00,
2013-01-31 21:42:00,39.4,35.6,30.30,SW,228,0.0,0.0,86,0.00,,,0.01,VWS V14.01,2013-02-01 05:42:00,
2013-01-31 21:47:00,39.5,36.0,30.30,SW,228,0.0,0.0,87,0.00,,,0.01,VWS V14.01,2013-02-01 05:47:00,
2013-01-31 21:52:00,39.6,36.1,30.30,SW,227,0.0,0.0,87,0.00,,,0.01,VWS V14.01,2013-02-01 05:52:00,
2013-01-31 21:57:00,39.5,36.0,30.30,SW,228,0.0,0.0,87,0.00,,,0.01,VWS V14.01,2013-02-01 05:57:00,
2013-01-31 22:00:00,39.3,35.5,30.30,SW,228,0.0,0.0,86,0.00,,,0.01,VWS V14.01,2013-02-01 06:00:00,
2013-01-31 22:02:00,39.3,35.8,30.30,SW,228,0.0,0.0,87,0.00,,,0.01,VWS V14.01,2013-02-01 06:02:00,
2013-01-31 22:07:00,39.2,35.7,30.30,SW,228,0.0,0.0,87,0.00,,,0.01,VWS V14.01,2013-02-01 06:07:00,
2013-01-31 22:12:00,39.0,35.5,30.30,SW,228,0.0,0.0,87,0.00,,,0.01,VWS V14.01,2013-02-01 06:12:00,
2013-01-31 22:17:00,38.8,35.0,30.30,SW,228,0.0,0.0,86,0.00,,,0.01,VWS V14.01,2013-02-01 06:17:00,
2013-01-31 22:22:00,38.6,34.8,30.30,SW,227,0.0,0.0,86,0.00,,,0.01,VWS V14.01,2013-02-01 06:22:00,
2013-01-31 22:27:00,38.5,35.0,30.30,SW,228,0.0,0.0,87,0.00,,,0.01,VWS V14.01,2013-02-01 06:27:00,
2013-01-31 22:30:00,38.6,35.1,30.30,SW,228,0.0,0.0,87,0.00,,,0.01,VWS V14.01,2013-02-01 06:30:00,
2013-01-31 22:32:00,38.6,35.1,30.30,SW,228,0.0,0.0,87,0.00,,,0.01,VWS V14.01,2013-02-01 06:32:00,
2013-01-31 22:37:00,38.5,35.0,30.30,SW,228,0.0,0.0,87,0.00,,,0.01,VWS V14.01,2013-02-01 06:37:00,
2013-01-31 22:42:00,38.5,35.0,30.30,SW,228,0.0,0.0,87,0.00,,,0.01,VWS V14.01,2013-02-01 06:42:00,
2013-01-31 22:47:00,38.3,34.8,30.30,SW,228,0.0,0.0,87,0.00,,,0.01,VWS V14.01,2013-02-01 06:47:00,
2013-01-31 22:52:00,38.1,34.6,30.30,SW,227,0.0,0.0,87,0.00,,,0.01,VWS V14.01,2013-02-01 06:52:00,
2013-01-31 22:57:00,38.1,34.6,30.30,SW,228,0.0,0.0,87,0.00,,,0.01,VWS V14.01,2013-02-01 06:57:00,
2013-01-31 23:00:00,38.2,35.0,30.29,SW,228,0.0,0.0,88,0.00,,,0.01,VWS V14.01,2013-02-01 07:00:00,
2013-01-31 23:02:00,38.2,35.0,30.30,SW,228,0.0,0.0,88,0.00,,,0.01,VWS V14.01,2013-02-01 07:02:00,
2013-01-31 23:07:00,38.3,35.1,30.30,SW,228,0.0,0.0,88,0.00,,,0.01,VWS V14.01,2013-02-01 07:07:00,
2013-01-31 23:12:00,38.1,34.6,30.29,SW,227,0.0,0.0,87,0.00,,,0.01,VWS V14.01,2013-02-01 07:12:00,
2013-01-31 23:17:00,37.9,34.4,30.29,SW,228,0.0,0.0,87,0.00,,,0.01,VWS V14.01,2013-02-01 07:17:00,
2013-01-31 23:22:00,37.8,34.6,30.29,SW,227,0.0,0.0,88,0.00,,,0.01,VWS V14.01,2013-02-01 07:22:00,
2013-01-31 23:27:00,37.6,34.4,30.29,SW,227,0.0,0.0,88,0.00,,,0.01,VWS V14.01,2013-02-01 07:27:00,
2013-01-31 23:30:00,37.5,34.0,30.29,SW,228,0.0,0.0,87,0.00,,,0.01,VWS V14.01,2013-02-01 07:30:00,
2013-01-31 23:32:00,37.5,34.3,30.29,SW,227,0.0,0.0,88,0.00,,,0.01,VWS V14.01,2013-02-01 07:32:00,
2013-01-31 23:37:00,37.4,34.2,30.29,SW,228,0.0,0.0,88,0.00,,,0.01,VWS V14.01,2013-02-01 07:37:00,
2013-01-31 23:42:00,37.3,34.1,30.29,SW,227,0.0,0.0,88,0.00,,,0.01,VWS V14.01,2013-02-01 07:42:00,
2013-01-31 23:47:00,37.1,33.9,30.29,SW,228,0.0,0.0,88,0.00,,,0.01,VWS V14.01,2013-02-01 07:47:00,
2013-01-31 23:52:00,37.1,33.9,30.29,SW,227,0.0,0.0,88,0.00,,,0.01,VWS V14.01,2013-02-01 07:52:00,
2013-01-31 23:57:00,37.3,34.1,30.30,SW,228,0.0,0.0,88,0.00,,,0.01,VWS V14.01,2013-02-01 07:57:00,